Weather History for Kaneohe MCBH, HI

Change the Weather History Date:

Friday, March 22, 2013

  Actual Average Record
Temperature  
Mean Temperature 74 °F -  
Max Temperature 80 °F 75 °F 80 °F (2012)
Min Temperature 69 °F 67 °F 64 °F (2001)
Cooling Degree Days 10    
Growing Degree Days 24 (Base 50)    
Moisture  
Dew Point 66 °F    
Average Humidity 76    
Maximum Humidity 98    
Minimum Humidity 51    
Precipitation  
Precipitation 0.17 in - - ()
Sea Level Pressure  
Sea Level Pressure 29.98 in    
Wind  
Wind Speed 9 mph (NW)    
Max Wind Speed 20 mph    
Max Gust Speed 29 mph    
Visibility 7 miles    
Events Rain    
Averages and records for this station are not official NWS values.
T = Trace of Precipitation, MM = Missing Value Source: NWS Daily Summary

Daily Weather History Graph

Daily Weather History Graph

Search for Another Location

Airport:

Trip Planner

Search our weather history database for the weather conditions in past years. The results will help you decide how hot, cold, wet, or windy it might be!

Date:

Astronomy

Mar. 22, 2013 Rise Set
Actual Time 6:32 AM HST 6:42 PM HST
Civil Twilight 6:10 AM HST 7:05 PM HST
Nautical Twilight 5:44 AM HST 7:31 PM HST
Astronomical Twilight 5:18 AM HST 7:57 PM HST
Moon 2:48 PM HST (3/22) 3:10 AM HST (3/22)
Length of Visible Light 12h 54m
Length of Day
12h 10m
Waxing Gibbous, 79% of the Moon is Illuminated
Mar 22
Waxing Gibbous
Mar 26
Full
Apr 2
Last Quarter
Apr 9
New
Apr 18
First Quarter

Hourly Weather History & Observations

Time (HST) Temp. Heat Index Dew Point Humidity Pressure Visibility Wind Dir Wind Speed Gust Speed Precip Events Conditions
12:57 AM 76.8 °F - 63.0 °F 62% 30.01 in 7.0 mi SSW 8.1 mph - N/A   Overcast
1:57 AM 75.4 °F - 64.9 °F 70% 29.98 in 7.0 mi SSW 18.4 mph - N/A   Overcast
2:57 AM 75.4 °F - 64.0 °F 68% 29.96 in 7.0 mi SW 19.6 mph 28.8 mph N/A   Mostly Cloudy
3:57 AM 74.7 °F - 64.0 °F 69% 29.95 in 7.0 mi SW 11.5 mph 19.6 mph N/A   Mostly Cloudy
4:57 AM 75.9 °F - 64.0 °F 67% 29.95 in 7.0 mi SSW 12.7 mph 23.0 mph N/A   Mostly Cloudy
5:57 AM 75.0 °F - 64.0 °F 69% 29.97 in 7.0 mi SSW 4.6 mph - N/A   Mostly Cloudy
6:57 AM 75.0 °F - 63.0 °F 66% 29.99 in 7.0 mi Variable 3.5 mph - N/A   Overcast
7:57 AM 75.9 °F - 63.0 °F 64% 30.00 in 7.0 mi SSW 6.9 mph - N/A   Overcast
8:57 AM 76.5 °F - 64.0 °F 65% 30.01 in 7.0 mi SW 5.8 mph - N/A   Mostly Cloudy
9:57 AM 78.8 °F - 63.0 °F 58% 30.02 in 7.0 mi SW 6.9 mph - N/A   Overcast
10:57 AM 78.8 °F - 63.0 °F 58% 29.99 in 7.0 mi SSW 10.4 mph - N/A   Overcast
11:57 AM 80.6 °F 81.7 °F 62.1 °F 53% 29.98 in 7.0 mi SW 10.4 mph - N/A   Mostly Cloudy
12:40 PM 80.6 °F 81.5 °F 60.8 °F 51% 29.99 in 6.2 mi North 10.4 mph - N/A   Overcast
12:57 PM 80.6 °F 81.5 °F 61.0 °F 51% 29.96 in 7.0 mi North 9.2 mph - N/A   Overcast
1:57 PM 77.0 °F - 71.1 °F 82% 29.94 in 7.0 mi NNW 8.1 mph - N/A   Overcast
2:57 PM 75.2 °F - 71.1 °F 87% 29.93 in 7.0 mi North 8.1 mph - N/A   Mostly Cloudy
3:57 PM 75.2 °F - 69.1 °F 81% 29.92 in 7.0 mi Variable 3.5 mph - N/A Rain Light Rain
4:57 PM 75.2 °F - 69.1 °F 81% 29.94 in 7.0 mi Calm Calm - N/A Rain Light Rain
5:00 PM - - - N/A% - - North - - N/A   Unknown
5:23 PM - - - N/A% - - North - - N/A   Unknown
5:57 PM 73.4 °F - 70.0 °F 89% 29.94 in 7.0 mi Calm Calm - N/A Rain Light Rain
6:57 PM 73.4 °F - 71.1 °F 92% 29.95 in 7.0 mi North 3.5 mph - N/A Rain Light Rain
7:25 PM 73.4 °F - 71.6 °F 94% 29.97 in 6.2 mi North 3.5 mph - N/A Rain Light Rain
7:57 PM 73.4 °F - 71.1 °F 92% 29.97 in 7.0 mi North 4.6 mph - N/A Rain Light Rain
8:57 PM 71.6 °F - 70.0 °F 95% 29.98 in 7.0 mi NNE 4.6 mph - N/A Rain Light Rain
9:37 PM 71.6 °F - 69.8 °F 94% 30.00 in 7.0 mi North 8.1 mph - N/A   Overcast
9:57 PM 71.6 °F - 70.0 °F 95% 29.99 in 7.0 mi North 8.1 mph - N/A   Mostly Cloudy
9:59 PM - - - N/A% 30.00 in - North 3.5 mph - 0.02 in   Overcast
10:06 PM 69.8 °F - 66.2 °F 88% 30.00 in 6.2 mi NNW 8.1 mph - 0.08 in Rain Light Rain
10:57 PM 69.8 °F - 66.4 °F 89% 29.99 in 7.0 mi North 10.4 mph - 0.14 in Rain Light Rain
11:57 PM 69.8 °F - 69.1 °F 98% 30.00 in 7.0 mi North 8.1 mph - 0.01 in Rain Light Rain